Hourly Data Report for November 13, 2004

SHERBROOKE A
QUEBEC

45°26'00.000" N
71°41'00.000" W
241.40 m
7028124
71610
YSC

Download Data

Hourly Data (November 2004)
Hourly Data Report for November 13, 2004
TIME
LST
Temp Definition
°C
Dew Point Definition
°C
Rel Hum Definition
%
Precip. Amount Definition
mm

Wind Dir Definition
10's deg

Wind Spd Definition
km/h
Visibility Definition
km
Stn Press Definition
kPa
Hmdx Definition


Wind Chill Definition


Weather Definition


00:00 -11.0 -12.8 87   6 6 15.0 100.27   -15  
01:00 -11.2 -13.2 85   10 6 15.0 100.27   -15  
02:00 -11.1 -13.0 86   9 4 15.0 100.30   -14  
03:00 -12.1 -14.0 86     0 15.0 100.30      
04:00 -12.2 -14.3 84     0 15.0 100.34      
05:00 -12.8 -14.7 86     0 15.0 100.36      
06:00 -12.2 -14.1 86     0 15.0 100.40      
07:00 -12.5 -14.4 86     0 15.0 100.45      
08:00 -10.0 -11.4 89   33 4 4.8 100.49   -12 Fog
09:00 -7.7 -9.6 86   25 4 16.1 100.50   -10 Mainly Clear
10:00 -5.4 -8.4 79   26 4 19.3 100.51   -7 Mainly Clear
11:00 -2.8 -7.0 73   27 7 24.1 100.48   -6 Mainly Clear
12:00 -0.4 -6.0 66   28 13 24.1 100.41   -5 Mainly Clear
13:00 -0.7 -6.8 63   33 15 24.1 100.42   -5 Mainly Clear
14:00 -1.8 -6.5 70   30 20 24.1 100.43   -8 Mainly Clear
15:00 -2.7 -7.0 72   30 20 24.1 100.47   -9 Mainly Clear
16:00 -4.7 -8.0 78   31 11 24.1 100.53   -9 Mainly Clear
17:00 -5.4 -8.8 77   30 15 19.3 100.61   -11 Mainly Clear
18:00 -5.8 -9.3 76   33 4 15.0 100.67   -8  
19:00 -6.9 -10.1 78   28 6 15.0 100.69   -10  
20:00 -6.7 -9.1 83   30 7 15.0 100.71   -10  
21:00 -7.1 -9.4 84   30 9 15.0 100.72   -11  
22:00 -7.7 -11.5 74     0 15.0 100.72      
23:00 -8.9 -11.9 79   26 4 15.0 100.74   -11  

Notes on Data Quality.

Legend

  • E = Estimated
  • M = Missing
  • NA = Not Available*
  • [empty] = Indicates an unobserved value
Date modified: